Regional Weather Roundup
Issued by NWS Cleveland, OH

Home | Current Version | Previous Version | Text Only | Print | Product List | Glossary Off
Versions: 1 2 3 4 5 6 7 8 9 10 11 12 13 14 15 16 17 18 19 20 21 22 23 24 25 26 27 28 29 30 31 32 33 34 35 36 37 38 39 40 41 42 43 44 45 46 47 48 49 50

000
ASUS41 KCLE 291410
RWRCLE
OHIO REGIONAL WEATHER ROUNDUP
NATIONAL WEATHER SERVICE CLEVELAND, OH
1000 AM EDT SAT APR 29 2017

NOTE: "FAIR" INDICATES FEW OR NO CLOUDS BELOW 12,000 FEET WITH NO
SIGNIFICANT WEATHER AND/OR OBSTRUCTIONS TO VISIBILITY.

OHZ001>008-015>018-024>027-034-035-043-044-291500-
   NORTHWEST OHIO

CITY           SKY/WX    TMP DP  RH WIND       PRES   REMARKS
DEFIANCE       LGT RAIN  52  48  86 N15       30.10R
FINDLAY        LGT RAIN  57  54  89 NE9       30.06F FOG
TOLEDO EXPRESS CLOUDY    48  45  89 NE15      30.11R
TOLEDO EXEC    CLOUDY    48  43  82 NE12      30.14R
LIMA           LGT RAIN  56  56 100 NE10      30.03F
$$

OHZ009>014-019>023-028>033-038-089-291500-
   NORTHEAST OHIO

CITY           SKY/WX    TMP DP  RH WIND       PRES   REMARKS
CLE-HOPKINS    CLOUDY    50  44  80 N10       30.14R
CLE-LAKEFRONT  CLOUDY    49  44  83 N16       30.12R
CUY CO. ARPT     N/A     50  50 100 NE9       30.10R FOG
LORAIN-ELYRIA  CLOUDY    47  41  80 NE8       30.15R
ASHTABULA      CLOUDY    53  53 100 N6        30.08F FOG
AKRON-CANTON   CLOUDY    58  53  84 CALM      30.10R
WOOSTER        LGT RAIN  56  54  93 SW3       30.11R
MANSFIELD      RAIN      55  54  96 N9        30.07F FOG
YOUNGSTOWN     CLOUDY    57  54  89 SE5       30.07R
$$

OHZ042-051>053-060>062-070>072-077>081-291500-
  SOUTHWEST OHIO

CITY           SKY/WX    TMP DP  RH WIND       PRES   REMARKS
CINC-COVINGTON TSTM      62  61  96 S8        30.09R FOG
CINC-LUNKEN    TSTM      61  61 100 SW9       30.12R FOG
HAMILTON       TSTM      64  64 100 CALM      30.06R FOG
DAYTON         TSTM      62  62 100 S9        30.06S FOG
WRIGHT-PAT AFB TSTM      63  63 100 S8        30.07R FOG
DAYTON GENERAL TSTM      63  62  97 E7        30.01F FOG
WILMINGTON     TSTM      62  62 100 NW7       30.10R FOG
$$

OHZ036-037-039>041-045>050-054>059-063>069-073>076-082>088-291500-
  CENTRAL AND SOUTHEAST OHIO

CITY           SKY/WX    TMP DP  RH WIND       PRES   REMARKS
COLUMBUS       TSTM      62  62 100 E7        30.05F FOG
OSU AIRPORT    TSTM      62  62 100 CALM      30.05R FOG
BOLTON FIELD   TSTM      63  63 100 CALM      30.09R
RICKENBACK AFB TSTM      61  61 100 E7        30.05F
NEWARK         LGT RAIN  63  61  93 SE6       30.06F
MARION         LGT RAIN  57  56  96 E8        30.06F FOG
LANCASTER      LGT RAIN  64  61  90 E6        30.06F
ZANESVILLE     LGT RAIN  63  61  93 S7        30.08F
NEW PHILLY     NOT AVBL
$$



USA.gov is the U.S. government's official web portal to all federal, state and local government web resources and services.